Wind_Speed
14 13 14 13 14 15 14 13 14 14 12 12 12 11 11 11 11 12 12 15 13 9 12 13 14 13 12 11 9 8 7 6 6 6 5 4 4 5 5 6 6 6 6 6 6 6 6 6 7 7 7 7 7 7 9 10 11 12 14 15 14 14 13 12 12 12 12 11 11 10 10 11 12 12 12 12 11 10 10 11 12 13 13 13 13
15 14 14 13 14 14 14 14 14 14 12 12 12 12 11 11 11 12 12 15 12 9 11 12 12 12 10 9 8 7 6 5 5 5 5 4 4 4 5 6 6 6 6 6 6 6 6 7 7 7 7 7 7 8 10 10 9 10 12 14 15 14 15 14 13 12 11 11 10 10 11 11 12 12 12 12 11 11 12 13 14 13 13 13 14
13 12 11 12 13 13 12 13 14 13 13 13 12 12 11 11 11 12 13 15 11 7 9 10 10 9 8 8 7 6 5 5 5 5 5 4 4 4 5 5 6 6 6 6 6 6 6 6 6 6 7 8 9 10 11 10 10 11 10 12 15 15 16 15 13 12 11 10 10 10 11 11 12 12 12 12 12 13 14 15 14 13 14 14 15
11 11 10 11 12 12 11 12 13 13 13 13 12 11 10 10 10 11 13 14 10 7 8 8 8 7 7 6 6 5 5 5 5 5 5 5 5 5 5 5 5 5 6 6 6 5 5 5 6 6 7 9 10 10 11 11 12 11 9 9 12 15 16 16 14 12 11 10 10 11 11 12 13 13 13 12 13 15 15 15 14 14 15 15 15
11 10 10 10 11 11 11 11 11 11 12 12 11 10 9 8 9 9 11 12 9 7 7 7 7 6 6 5 5 5 5 6 7 7 6 6 6 6 5 5 5 5 5 6 6 5 5 5 5 6 7 10 10 10 12 12 12 11 10 8 10 13 15 15 14 12 11 10 10 11 12 13 13 13 13 13 15 16 15 15 15 15 15 16 16
10 10 10 9 9 10 11 10 10 11 11 11 10 9 9 9 8 8 9 10 8 7 6 6 6 6 5 5 5 5 6 6 7 8 7 7 7 6 6 5 5 5 5 5 5 5 5 5 5 6 6 9 11 11 12 12 11 10 10 8 9 13 14 14 13 12 11 10 11 12 13 13 14 14 14 14 16 16 16 15 16 16 16 16 16
9 9 9 9 9 9 10 10 10 10 10 10 8 7 7 7 8 6 7 9 8 7 6 5 5 5 5 5 6 6 6 7 7 8 8 8 7 7 7 6 5 5 5 5 4 4 4 4 6 7 6 8 11 11 12 12 12 10 9 8 9 12 13 14 13 11 11 11 11 12 13 14 15 15 14 15 16 16 16 15 16 16 16 15 15
9 9 8 8 8 8 9 10 11 10 10 8 7 6 5 6 6 6 6 7 8 7 6 5 5 5 6 6 7 7 7 7 6 7 9 9 7 7 7 7 7 6 6 5 5 4 4 4 5 7 6 8 11 11 11 11 11 10 9 9 9 12 13 13 13 12 12 11 11 12 14 15 15 15 15 16 16 16 16 16 15 15 15 15 14
10 9 8 8 8 8 9 10 12 12 11 10 9 8 7 8 7 7 7 7 7 6 6 6 6 6 6 7 7 7 7 7 6 6 8 9 8 7 8 8 8 7 6 6 5 4 4 5 6 7 6 9 11 11 11 10 11 10 9 9 9 11 12 12 12 12 12 12 12 13 15 16 15 15 15 15 16 16 16 16 15 14 14 14 14
11 10 10 9 9 8 8 8 10 11 11 12 11 9 8 9 8 7 8 8 7 7 7 6 6 6 6 6 6 6 6 7 6 6 7 8 8 8 8 8 8 8 7 6 5 4 5 5 7 7 6 9 11 11 11 10 10 10 9 9 9 10 12 12 12 12 12 12 12 14 16 16 15 15 15 15 15 16 16 16 15 14 13 13 12
12 11 10 9 8 8 7 7 8 8 9 10 10 9 8 8 7 7 7 7 7 6 7 7 7 6 6 6 6 6 6 7 7 6 7 8 9 8 9 9 9 8 7 6 5 4 5 6 8 7 7 9 11 11 10 10 10 10 9 9 9 10 11 12 12 12 12 12 13 15 16 15 15 14 14 15 15 15 16 16 15 14 12 12 12
11 10 9 7 7 6 6 6 6 7 7 8 8 9 8 7 6 6 6 6 6 6 6 6 7 7 6 6 6 6 6 7 8 7 7 8 9 9 9 10 10 9 7 6 5 5 5 6 7 7 7 9 11 11 10 10 10 9 9 8 8 9 11 12 12 12 12 13 14 15 15 15 14 14 15 15 15 15 15 15 15 14 13 12 12
10 9 7 6 6 5 5 5 6 6 6 6 6 7 7 6 6 5 5 5 5 5 6 6 7 7 7 7 7 7 7 8 9 8 8 8 9 10 10 10 10 10 8 6 5 5 6 7 7 7 8 9 10 11 10 10 9 9 8 8 8 9 11 12 11 12 12 13 14 15 15 14 14 14 15 15 14 14 14 15 14 14 13 13 13
9 8 6 6 5 5 5 6 6 6 4 5 6 6 6 5 5 5 6 5 5 6 6 7 8 7 7 8 8 8 9 9 10 9 9 9 9 10 10 10 10 10 9 7 7 7 7 7 7 7 8 9 10 11 10 10 9 9 8 8 8 9 11 11 11 12 13 14 15 15 14 14 14 15 15 15 14 14 14 14 14 15 15 15 15
9 8 6 5 4 4 5 5 7 6 3 4 6 6 6 5 5 5 6 6 6 6 7 8 8 8 8 8 8 8 9 10 10 10 10 9 9 10 10 10 10 10 9 8 7 7 7 7 8 7 8 9 10 10 10 9 9 9 8 8 8 9 10 11 11 12 13 14 15 14 14 13 14 15 15 15 15 14 14 14 15 16 16 16 16
8 7 6 5 4 4 4 6 8 5 4 4 5 5 6 5 5 4 5 6 7 7 7 8 7 6 6 6 7 7 8 10 10 10 11 10 10 10 10 10 10 9 8 7 6 7 7 8 8 7 8 10 10 10 10 9 8 8 8 8 8 9 10 11 12 12 14 15 15 14 14 13 14 15 15 15 15 15 15 15 17 17 17 17 18
8 8 7 6 5 5 6 9 7 5 5 5 5 4 4 5 5 4 4 5 6 7 7 6 5 6 5 6 7 6 7 10 10 9 10 11 11 11 11 10 10 9 8 7 6 7 8 8 8 7 8 10 10 10 10 9 8 8 8 8 9 10 10 11 12 13 14 15 15 14 14 13 14 15 16 16 16 16 16 17 18 18 18 18 18
9 8 8 6 6 5 7 10 6 4 4 4 3 3 3 3 4 4 5 5 6 6 6 4 5 6 6 6 7 8 8 10 10 10 11 12 12 12 11 11 10 9 8 7 6 7 8 8 7 7 9 10 10 10 9 9 8 9 9 9 9 10 10 11 12 13 14 15 15 14 13 13 14 15 17 17 17 17 17 17 18 18 18 18 18
9 8 7 5 5 4 7 10 5 2 2 1 2 2 1 1 2 3 4 5 6 7 6 4 5 7 7 7 7 8 9 10 11 12 12 13 13 13 12 11 10 9 8 7 7 7 8 7 7 8 9 10 10 10 9 9 9 9 9 9 10 10 10 11 12 14 15 15 14 13 13 13 14 16 17 17 17 17 17 18 18 18 18 18 18
9 7 6 4 4 4 7 10 5 2 1 1 2 1 1 1 1 3 4 5 7 7 5 5 5 6 7 7 7 9 10 11 12 12 13 13 13 13 13 12 11 10 9 8 8 8 7 6 7 8 10 11 11 10 10 9 9 10 10 10 10 10 10 11 13 14 15 15 14 13 13 14 15 17 17 17 17 17 17 18 18 18 18 18 18
8 6 5 3 3 3 7 8 5 3 2 2 2 2 1 1 1 2 4 6 7 5 5 5 6 6 7 8 8 9 10 11 12 12 13 13 13 14 14 13 12 10 9 9 9 9 7 6 7 9 10 11 11 10 10 10 10 11 11 10 9 10 11 12 13 14 15 14 13 13 14 15 16 16 17 16 16 16 17 17 17 17 17 17 17
7 6 5 3 2 2 5 7 4 3 3 3 3 2 2 2 1 1 3 5 5 4 5 5 6 7 7 8 9 10 11 11 11 12 13 13 14 14 14 14 13 11 10 10 10 9 7 7 8 9 10 11 10 10 10 11 11 12 11 10 9 10 11 13 14 15 14 13 13 13 14 15 16 16 16 16 16 16 16 16 16 16 15 15 15
6 5 4 3 2 2 4 5 4 4 4 4 4 3 3 4 3 2 2 4 4 5 6 6 6 7 8 9 10 10 11 11 12 13 13 14 15 15 15 15 14 12 12 11 10 9 7 7 8 9 10 10 10 10 10 11 12 11 10 9 9 10 12 14 14 14 13 13 13 14 14 15 15 15 15 15 15 15 15 15 14 14 14 14 14
6 5 4 3 2 2 3 4 4 4 5 5 5 4 5 5 4 4 4 4 5 6 7 8 8 9 9 10 10 11 11 12 13 13 13 15 16 16 16 16 15 14 13 12 11 9 7 8 9 9 10 10 10 10 11 11 11 11 10 9 10 11 13 14 14 14 13 13 13 14 14 15 15 15 15 14 14 14 13 13 13 12 12 12 12
6 4 4 3 2 3 4 5 4 4 5 7 7 6 6 6 5 5 6 6 7 7 8 9 10 11 11 11 12 12 12 12 12 13 13 15 16 17 18 18 16 15 14 13 11 10 9 9 10 10 10 11 11 10 10 11 11 10 10 10 11 12 13 14 14 13 12 13 13 13 13 14 15 14 13 13 13 12 11 11 11 11 11 11 11
5 4 4 4 3 3 4 5 5 5 6 8 9 8 7 7 7 7 8 8 9 9 10 10 11 12 13 13 12 12 12 12 12 13 13 15 17 18 19 18 16 15 15 13 11 10 11 10 11 11 12 12 12 11 10 10 10 9 9 10 12 13 13 14 13 12 12 12 13 13 13 14 14 13 12 12 11 10 10 10 10 10 10 11 11
5 5 4 4 4 4 5 6 6 5 7 9 10 9 9 9 9 9 9 9 10 11 12 12 13 13 13 13 13 12 13 13 14 14 15 16 18 20 19 18 16 16 15 13 12 11 12 12 12 13 13 13 13 11 9 9 9 9 10 11 12 12 13 13 13 12 12 12 12 12 12 13 13 12 11 10 9 9 8 8 9 9 10 11 11
6 5 4 4 4 5 6 7 7 7 8 10 11 10 10 10 10 10 10 10 11 12 14 14 14 14 14 14 14 14 15 16 16 17 19 20 21 20 19 17 17 17 15 13 12 12 12 13 13 14 14 14 12 10 9 9 9 9 10 11 11 12 12 13 12 12 11 11 11 11 12 12 11 10 9 9 8 7 7 8 8 9 10 10 10
6 5 4 4 5 6 7 9 9 9 8 10 12 11 11 11 11 11 11 11 12 14 15 15 16 15 15 15 15 16 17 18 19 20 21 21 21 20 19 18 18 17 15 13 13 13 14 14 15 15 14 13 12 11 10 10 9 10 11 11 11 11 12 12 11 11 11 10 11 11 10 10 10 9 8 8 7 6 7 7 8 9 10 10 10
6 4 4 5 6 7 8 10 11 11 9 10 11 12 13 12 11 12 12 12 12 14 15 15 16 16 16 16 16 17 18 19 20 21 22 21 21 21 20 19 18 17 15 14 15 15 15 16 16 15 13 12 11 11 11 10 10 11 11 11 11 11 11 11 10 10 10 10 10 9 9 8 8 8 7 6 6 6 7 8 8 9 10 10 9
6 5 5 6 7 8 9 10 11 12 10 10 11 13 13 13 12 13 13 13 12 13 14 14 15 15 16 17 17 17 18 19 20 21 22 22 21 20 19 18 17 17 16 16 17 16 16 16 16 14 13 12 12 12 12 11 11 11 11 11 11 11 11 10 9 9 9 8 8 8 7 7 7 6 6 6 6 6 7 8 8 9 9 9 9
5 5 5 7 8 9 9 10 11 12 11 11 11 12 13 13 13 13 13 13 12 12 13 13 14 15 16 17 18 18 18 19 20 20 21 21 20 19 19 18 17 17 17 18 18 17 16 16 14 13 12 12 13 13 13 12 12 11 11 12 11 11 11 10 9 8 8 7 7 7 6 6 6 6 6 6 6 6 7 7 8 8 9 9 9
5 4 5 7 8 9 10 10 11 12 11 12 12 12 12 12 13 13 13 12 12 12 12 13 14 15 16 17 18 18 19 19 20 20 20 19 19 18 18 17 18 19 19 20 20 18 16 15 14 13 13 13 13 13 13 13 12 12 11 11 11 11 10 9 8 7 7 6 6 5 5 6 6 6 6 6 6 6 7 7 8 8 8 9 9
6 4 5 7 8 9 10 11 11 12 12 12 12 12 12 12 12 13 13 13 12 12 12 13 13 14 15 16 17 18 19 19 19 19 19 18 17 17 17 18 19 20 20 20 20 18 16 14 14 13 13 13 14 14 14 13 12 11 11 11 11 10 10 8 8 7 6 6 5 4 5 5 5 5 6 6 6 7 7 7 8 8 8 9 9
5 5 5 6 7 9 10 11 11 11 11 12 12 12 12 12 11 12 13 13 13 13 13 13 13 14 14 15 17 17 18 19 19 18 18 17 16 16 17 19 20 20 20 19 19 18 16 15 14 14 13 14 14 14 14 12 11 11 11 11 10 10 9 8 7 7 6 5 4 4 4 4 5 5 6 6 6 7 7 7 8 8 8 9 9
5 5 5 6 6 8 9 10 11 11 11 12 12 13 12 12 11 12 13 13 13 13 13 13 13 14 14 14 16 17 18 19 19 18 17 16 16 17 19 20 21 21 19 18 18 17 16 15 13 13 13 14 14 15 14 12 11 10 10 10 9 9 8 8 7 6 5 5 4 3 3 4 4 5 6 6 7 7 7 8 8 9 9 9 8
7 6 6 6 6 7 8 9 10 10 11 11 12 13 13 13 12 12 13 13 14 13 13 13 13 14 14 14 14 15 16 17 18 18 17 17 18 19 20 21 21 20 19 17 17 16 15 14 12 12 13 14 15 15 15 14 12 10 9 9 8 8 7 7 6 6 5 4 4 3 3 3 4 5 6 6 6 7 7 8 8 8 9 9 8
7 6 6 6 6 6 7 9 10 10 10 11 12 13 14 14 14 14 14 15 15 15 15 14 14 14 14 15 14 15 16 16 17 17 18 19 21 21 21 21 20 19 18 16 15 15 14 13 11 12 13 14 15 16 16 15 14 12 10 9 8 7 7 6 6 6 5 4 4 3 2 2 3 4 5 5 6 6 7 8 8 8 9 9 9
6 7 6 6 7 6 6 8 9 10 10 10 11 12 14 15 16 16 16 17 16 16 16 16 15 15 15 16 15 15 16 16 17 18 19 21 22 23 22 21 20 19 17 16 15 14 13 11 10 11 13 14 15 16 16 15 15 14 12 10 9 8 7 7 7 6 6 5 3 2 2 2 3 3 4 5 5 6 7 8 8 9 9 10 10
6 7 7 7 7 7 6 7 9 10 10 10 11 12 13 15 17 17 17 17 17 17 17 17 17 16 16 17 16 16 17 17 18 20 21 22 23 22 21 20 19 18 17 16 15 14 12 10 10 11 13 14 15 16 16 15 14 14 13 12 10 9 8 8 8 7 6 5 4 2 1 1 2 3 4 4 5 7 8 8 9 9 9 10 10
5 7 8 8 8 7 7 7 8 9 10 11 11 12 14 15 16 16 17 17 17 17 17 17 17 17 17 17 17 18 18 19 20 20 21 21 21 20 20 19 18 17 16 15 14 13 12 11 10 10 12 13 14 15 15 15 14 14 13 12 11 9 8 8 8 7 6 5 4 3 1 1 1 2 3 4 6 7 8 8 9 10 9 9 9
5 6 8 8 8 8 8 7 8 9 10 11 11 12 14 15 16 16 16 16 16 16 16 17 17 17 16 17 17 18 19 19 20 20 20 19 18 18 17 17 17 16 15 14 13 12 12 12 11 11 12 12 13 14 14 15 14 14 13 12 10 9 8 7 7 7 6 5 3 3 2 1 0 2 3 4 6 7 8 9 9 10 9 9 8
6 7 8 9 9 9 8 8 9 9 10 11 12 13 14 15 16 16 16 15 15 16 16 16 17 17 16 16 16 17 18 18 18 18 18 17 16 16 15 15 14 14 14 13 12 12 11 11 11 11 11 12 12 13 13 14 14 13 13 12 11 9 8 7 7 6 6 5 4 3 2 1 1 2 3 4 5 6 7 8 9 10 9 9 8
8 8 9 9 9 9 9 9 9 10 10 11 12 13 14 15 16 17 16 16 16 16 16 17 17 17 16 16 16 16 16 16 17 16 16 15 14 14 13 13 12 12 13 12 12 11 10 10 10 10 11 11 11 12 12 12 12 12 12 12 11 10 9 8 7 6 6 5 4 3 2 1 1 1 2 3 4 6 7 8 9 9 9 9 8
9 9 9 10 10 10 10 10 10 10 10 11 11 12 13 14 14 15 16 16 16 15 15 16 16 17 16 16 16 16 15 15 15 15 14 13 12 12 12 11 11 11 11 11 10 9 8 8 8 9 10 10 11 11 11 10 9 10 10 10 10 10 9 8 7 7 6 5 5 4 2 1 1 1 2 3 5 6 8 8 8 9 9 9 8
10 9 10 11 11 10 10 11 11 10 11 11 11 11 11 12 13 13 14 14 15 15 14 14 15 16 16 16 15 15 15 15 14 14 13 12 12 11 11 11 10 10 10 9 9 8 7 7 7 8 8 9 9 10 10 9 8 8 8 8 8 8 8 8 7 7 6 6 5 4 3 3 2 2 3 5 6 7 7 8 8 9 9 9 9
12 11 11 11 11 11 11 11 12 11 11 11 11 11 11 11 12 12 12 13 13 14 14 14 14 14 14 14 14 14 14 14 14 14 13 12 12 11 11 10 9 9 9 8 8 7 6 6 6 6 7 7 7 8 8 8 7 7 6 6 6 6 6 6 6 6 6 6 5 4 4 4 4 4 5 6 7 7 8 8 9 9 9 9 10
13 13 13 12 12 11 12 12 12 12 12 12 11 11 11 10 10 10 11 12 12 12 12 12 12 12 13 13 13 13 13 13 13 13 12 12 11 11 10 9 9 8 7 7 6 6 5 5 5 5 5 5 5 6 6 6 6 6 5 5 5 5 5 5 5 5 4 4 4 3 3 4 4 5 6 7 7 7 8 8 9 9 10 10 10
15 15 14 13 12 12 12 13 12 12 12 12 12 12 11 11 10 10 10 10 11 11 11 11 11 10 11 11 12 12 12 12 12 11 11 10 10 9 9 9 8 7 7 6 6 6 6 5 5 4 4 4 4 5 5 5 5 4 4 4 4 4 4 4 3 3 3 2 3 3 3 4 5 6 6 6 7 7 7 8 9 10 11 11 10
17 16 14 14 13 13 13 13 13 12 12 13 12 12 12 11 11 11 10 10 10 10 11 11 11 10 10 11 11 11 11 11 11 11 11 10 10 9 9 8 8 7 6 6 6 6 6 6 5 4 4 4 4 4 5 5 4 4 3 3 3 3 3 3 2 2 2 2 3 4 5 6 6 6 6 7 7 7 8 8 9 10 11 10 11
17 15 15 15 15 14 14 14 14 13 13 13 13 13 12 12 11 11 10 10 10 10 10 10 11 11 11 11 11 11 11 11 11 11 11 10 10 9 8 8 7 7 6 5 5 5 5 4 4 4 4 4 5 5 5 5 5 5 4 4 4 5 4 4 4 4 4 4 5 5 6 7 7 7 6 6 6 7 8 8 9 10 10 11 11
Wind_Direction
109 109 108 112 121 126 128 129 130 131 131 126 120 120 125 133 144 142 137 123 125 138 120 123 129 125 126 124 127 127 127 124 117 106 99 97 103 114 123 133 134 135 136 136 134 128 130 127 113 103 102 102 100 98 98 100 107 114 116 112 107 105 106 107 107 106 101 93 83 73 66 60 55 49 47 53 54 53 63 76 85 89 88 86 86
102 101 103 109 117 126 131 131 128 127 123 117 116 119 128 139 145 142 135 119 122 137 122 125 128 127 129 129 132 130 129 120 110 102 100 105 112 121 124 130 134 137 138 138 131 124 125 120 110 104 106 105 101 98 94 96 104 109 110 111 109 109 112 112 111 109 104 94 82 71 63 57 53 50 53 55 56 66 81 88 89 87 83 83 86
100 100 103 108 116 124 129 128 124 123 119 117 119 123 132 141 143 136 127 114 121 140 127 129 128 131 135 134 135 132 131 120 113 109 112 118 119 122 126 131 136 139 136 134 129 126 124 115 112 110 111 107 100 96 97 102 100 94 96 105 109 112 114 115 114 111 105 93 80 69 63 57 51 53 57 58 67 83 91 90 85 80 79 82 87
102 105 109 113 118 125 128 125 124 126 123 123 127 131 136 141 137 127 116 111 130 153 137 134 132 135 139 137 139 138 139 134 130 127 130 129 124 126 132 136 136 135 134 134 129 128 127 124 121 116 115 108 103 102 104 103 94 88 86 92 104 110 113 115 114 110 102 90 78 69 62 54 50 54 59 66 81 91 91 87 81 78 79 85 90
106 111 115 119 124 129 129 127 127 128 127 126 131 137 139 137 130 120 114 118 140 153 137 133 134 138 141 145 148 150 154 151 145 141 137 127 124 129 135 137 135 135 134 130 127 130 130 123 110 106 111 106 104 104 102 98 93 92 91 87 98 106 110 112 111 106 98 87 77 68 60 53 52 56 62 75 88 91 88 83 80 81 84 88 90
109 113 117 123 128 131 133 134 133 132 130 127 133 139 137 130 123 121 130 138 142 132 125 131 137 142 148 155 158 162 162 155 149 141 130 122 123 129 133 134 134 136 131 123 127 136 130 118 105 99 98 100 102 103 103 101 97 94 92 92 100 106 110 111 108 104 97 85 75 66 58 54 57 63 72 84 90 89 86 82 83 87 89 89 90
113 117 121 126 130 133 135 138 138 133 129 128 132 133 126 117 116 131 153 151 137 126 132 138 141 150 155 161 160 160 156 154 149 135 124 119 123 128 132 133 133 133 129 128 133 137 131 124 114 101 92 101 104 106 108 106 104 99 97 100 106 109 112 113 109 104 94 82 72 63 58 59 66 74 82 89 91 89 85 84 86 89 90 90 90
118 121 125 128 131 135 138 139 138 133 129 128 127 126 121 119 131 154 154 136 126 127 135 138 144 151 152 154 152 152 152 153 146 131 122 119 122 127 132 134 134 135 135 138 140 137 129 122 100 91 96 107 105 107 108 106 108 104 101 105 108 109 112 112 107 100 88 77 68 60 62 68 75 82 88 91 92 89 85 84 86 88 89 89 88
118 120 124 127 130 135 137 137 137 139 142 141 143 148 144 144 156 159 139 122 121 123 127 135 139 142 145 148 149 150 149 146 139 126 120 120 124 128 131 133 133 137 140 144 145 132 124 119 98 94 107 107 103 108 107 104 106 102 99 100 105 109 109 107 102 93 83 74 65 63 71 77 82 86 90 92 93 89 85 83 84 86 87 87 87
117 119 121 125 129 131 131 129 131 137 142 140 143 148 141 144 152 142 126 121 120 122 128 133 134 141 149 152 154 152 146 138 131 125 123 125 126 129 131 132 135 139 143 147 147 134 130 123 104 103 111 104 106 111 109 106 102 98 95 98 105 108 107 103 97 89 81 73 67 71 80 83 85 88 93 95 94 89 85 82 82 83 85 87 87
116 118 119 123 125 124 125 122 122 124 125 124 129 132 127 133 136 125 121 120 123 127 133 140 145 153 157 159 162 156 148 137 130 131 133 132 130 131 132 134 136 141 145 146 146 145 135 116 106 109 108 104 111 116 114 111 105 102 99 102 107 107 105 100 94 88 81 74 73 80 85 85 86 90 95 97 95 89 84 80 78 78 81 86 87
114 117 118 121 122 125 131 129 128 121 116 119 127 126 121 127 127 124 129 131 137 143 149 157 161 167 170 171 168 163 156 146 140 142 143 139 135 133 134 136 139 141 144 143 148 145 125 111 113 114 104 105 115 121 121 117 114 111 109 109 109 107 104 98 93 88 82 78 81 85 86 85 88 93 97 96 93 86 81 76 73 74 78 82 84
109 113 118 124 128 137 144 145 137 119 120 134 132 121 120 137 142 145 153 152 162 172 176 182 184 184 186 184 177 171 166 156 151 149 149 145 140 136 135 138 141 141 142 145 152 142 127 122 121 112 104 111 119 124 127 124 122 118 116 113 108 106 102 97 92 87 83 83 86 87 86 87 91 95 96 93 88 81 76 72 71 73 77 80 81
107 111 119 128 137 149 153 148 126 111 132 147 131 124 133 152 154 160 165 165 183 193 193 199 202 196 196 197 187 180 174 164 159 156 152 149 146 141 137 141 144 144 145 149 150 142 134 129 119 108 108 118 124 127 130 129 128 123 118 112 106 104 101 97 92 87 86 88 90 89 88 90 94 95 93 89 83 77 73 71 74 77 79 80 80
109 113 118 125 139 151 148 126 105 106 148 152 139 140 149 161 157 164 170 170 187 199 199 201 203 199 200 204 195 187 180 168 165 162 154 151 153 146 138 144 149 147 144 144 142 136 133 127 115 109 116 125 127 127 129 130 128 123 117 111 106 104 101 97 92 90 91 93 93 91 91 93 94 93 89 84 79 75 73 75 80 81 81 80 79
113 117 122 131 144 150 134 106 101 124 174 172 159 156 161 171 164 170 177 173 186 198 204 200 193 194 196 199 194 189 180 166 165 165 155 156 158 148 142 148 150 145 139 137 134 131 132 126 116 115 125 131 129 128 128 128 126 121 118 114 109 105 102 98 95 95 96 97 96 95 95 94 92 91 88 83 80 79 79 82 84 83 82 81 79
119 126 130 137 145 147 125 105 111 152 189 189 169 163 166 162 158 173 186 184 192 203 212 202 179 185 188 180 177 179 177 164 162 168 161 161 159 150 147 150 150 145 140 137 132 132 132 124 120 122 131 134 131 129 128 127 125 122 119 115 110 107 103 100 99 100 101 101 99 98 96 93 92 90 88 86 85 85 86 88 86 85 83 81 80
121 128 131 138 142 137 116 105 120 171 201 202 146 138 162 153 154 170 190 194 202 215 219 201 174 179 182 178 172 171 170 161 165 174 167 163 159 152 151 152 150 147 142 138 134 133 130 125 126 128 134 137 134 132 129 128 127 124 120 115 111 108 104 103 104 105 105 104 101 99 95 93 93 92 90 89 90 90 92 91 87 85 82 80 79
117 122 128 136 140 132 109 103 116 167 197 200 99 106 154 152 160 175 198 199 205 220 221 197 183 178 175 184 178 169 162 158 170 174 168 165 159 155 155 153 150 146 141 139 137 134 131 131 132 132 137 141 139 135 131 131 130 125 120 116 113 109 107 106 107 108 108 106 102 99 95 94 94 94 93 93 95 95 93 89 85 82 79 77 76
114 121 127 136 141 126 104 101 112 144 111 61 66 70 88 125 176 195 212 215 214 219 216 200 193 184 177 182 177 167 160 161 170 171 169 166 160 159 156 154 151 146 142 140 139 137 136 136 134 135 141 146 144 138 134 135 131 125 120 116 114 112 110 110 111 111 109 106 102 98 96 97 96 96 96 96 96 94 90 85 81 78 75 74 73
118 122 124 130 135 115 99 99 112 127 93 70 67 58 51 65 179 207 216 221 220 209 205 203 191 186 182 178 171 164 163 166 169 168 169 168 163 161 157 155 153 150 146 142 142 140 141 141 135 135 142 147 144 140 139 137 131 124 120 117 116 115 114 114 115 113 109 105 101 100 100 100 99 98 98 96 95 91 86 81 77 75 73 72 71
118 120 119 123 123 106 100 103 113 111 91 80 72 62 47 45 74 177 203 211 211 188 193 197 182 178 174 169 166 163 164 167 168 166 167 167 164 162 159 157 156 153 148 145 144 141 145 142 133 135 141 144 144 142 139 134 128 122 118 117 118 118 117 117 117 113 108 105 102 102 102 102 101 100 98 95 92 87 83 78 75 73 72 71 69
117 115 115 122 120 100 99 104 106 95 84 75 63 58 70 78 90 111 159 178 166 154 166 169 160 159 157 159 160 160 162 164 166 165 164 164 164 163 161 159 158 154 148 145 143 141 145 138 131 135 141 143 144 141 135 131 126 119 116 117 119 119 119 119 117 113 108 106 105 104 104 103 102 99 96 93 89 85 81 77 74 71 70 69 67
117 112 115 122 124 108 102 98 90 82 81 78 72 69 82 93 99 105 132 144 135 137 145 147 147 146 147 151 152 154 158 159 161 163 164 164 163 163 162 161 160 153 147 145 141 140 139 132 131 137 141 141 139 136 132 130 123 116 115 118 120 120 120 120 116 111 108 107 107 106 105 103 101 99 96 92 88 83 79 75 72 68 67 66 64
122 120 128 133 127 112 104 93 77 70 76 82 89 91 92 99 107 115 127 131 128 129 136 138 139 141 143 146 147 148 151 152 154 157 160 159 160 162 162 161 158 151 146 141 136 136 133 131 134 138 138 136 133 132 132 128 118 114 116 121 123 122 122 120 115 111 110 110 108 107 105 103 100 98 95 92 87 82 77 73 69 64 61 59 58
134 135 134 128 116 111 103 92 79 69 73 87 100 105 106 110 111 115 120 125 127 127 130 133 135 139 142 144 145 145 144 143 144 147 152 156 158 160 160 159 154 147 140 135 132 134 132 133 136 136 135 131 130 131 130 121 111 112 119 125 125 124 123 119 114 112 112 110 109 107 104 101 99 97 95 92 87 81 75 70 64 57 53 52 50
140 137 129 120 112 110 105 96 87 77 77 88 99 104 105 107 108 111 116 121 126 126 127 131 134 137 138 140 142 141 137 134 135 140 147 153 154 154 155 153 146 138 131 129 132 133 133 134 135 134 131 129 129 129 123 112 107 115 123 126 125 124 123 119 115 114 112 110 109 107 104 101 100 98 96 91 85 80 73 64 58 51 47 45 43
136 134 127 119 115 111 103 98 93 87 83 88 96 99 99 102 106 110 114 119 125 126 128 131 133 133 134 135 135 133 131 129 129 133 139 143 145 147 149 144 136 129 126 129 133 134 135 135 133 131 130 130 130 126 118 109 109 119 125 126 124 124 123 119 117 115 113 110 109 107 105 102 101 99 94 88 81 75 68 59 52 46 43 41 39
137 138 132 121 116 110 101 97 93 89 86 90 97 100 100 103 105 105 109 116 122 125 127 130 130 130 130 129 130 130 129 128 128 130 133 136 138 141 140 135 130 127 128 133 134 135 136 135 133 132 131 132 130 124 116 111 116 125 127 126 125 125 123 120 117 116 113 111 109 108 106 104 101 97 92 86 78 70 63 56 49 44 41 39 37
140 140 129 120 113 105 97 92 91 90 88 89 93 98 100 102 103 103 106 112 118 123 126 127 127 127 127 128 128 129 128 129 130 130 131 132 134 136 135 132 129 129 132 136 136 136 137 134 133 133 133 133 128 121 116 116 125 131 130 128 128 127 124 120 117 115 112 110 108 107 106 103 97 92 87 83 75 65 58 52 46 42 39 38 36
139 135 123 113 107 99 93 90 89 90 93 92 91 94 98 102 105 106 109 112 116 120 123 125 126 126 125 126 126 127 128 129 130 131 132 133 135 135 134 133 131 132 136 138 137 136 136 134 133 134 134 131 126 120 118 124 132 133 130 130 129 127 123 119 115 113 110 108 105 103 102 97 89 82 75 71 67 59 53 47 42 38 35 35 34
134 131 123 112 105 98 93 91 89 90 94 96 93 93 96 101 105 108 112 115 117 119 121 123 125 126 125 124 125 126 129 130 132 133 134 134 135 135 134 134 134 136 140 140 137 136 135 133 133 133 132 128 124 122 123 129 134 133 130 129 128 125 122 118 114 112 110 106 102 99 94 89 78 67 57 52 51 48 44 39 35 32 30 31 31
134 132 124 113 106 100 95 92 91 91 94 97 94 92 93 98 103 106 110 113 115 118 120 123 125 127 128 127 127 127 130 132 132 133 133 133 133 134 135 136 138 140 141 139 136 135 134 133 131 130 129 126 123 123 125 130 133 132 129 126 124 122 119 117 115 113 110 104 99 93 86 77 64 50 40 36 36 35 34 31 29 27 26 28 29
137 134 126 115 108 104 100 96 93 94 96 98 96 93 92 94 98 102 106 109 112 115 120 125 126 128 130 131 131 130 132 133 133 133 133 132 133 136 137 138 140 140 139 136 133 133 133 131 130 129 128 126 124 123 125 129 132 129 125 122 121 120 119 118 119 117 113 107 99 86 73 63 51 39 30 26 26 27 27 25 25 24 25 27 27
140 134 128 119 112 107 104 101 99 99 99 100 100 98 95 94 95 99 103 106 109 113 117 123 125 126 130 134 136 135 135 136 137 136 134 134 136 138 140 140 140 138 136 133 132 133 132 130 129 129 128 125 123 122 123 127 128 124 120 118 119 120 120 122 124 121 117 113 103 83 64 48 36 29 23 22 23 25 26 24 23 24 25 27 26
143 138 131 123 116 110 107 105 104 105 104 104 104 104 102 100 99 100 104 108 110 113 116 120 122 123 127 132 137 138 138 139 140 139 137 137 139 141 140 139 139 136 134 132 131 131 129 128 128 128 127 124 123 123 123 123 122 119 117 116 117 119 120 123 124 120 116 112 100 78 56 35 24 20 18 21 24 25 24 24 24 24 25 27 25
145 143 140 131 124 114 110 108 108 110 109 110 111 111 110 108 107 107 109 112 114 115 116 118 120 122 124 127 132 136 138 139 140 141 141 140 140 140 140 139 137 135 133 132 131 128 126 126 128 129 129 129 128 127 126 124 122 119 115 112 113 115 115 118 117 112 106 96 84 65 45 27 18 19 21 23 24 23 22 23 23 22 23 25 25
145 144 146 141 134 123 116 113 112 114 114 115 115 115 117 117 116 116 116 117 118 118 118 119 120 124 126 128 131 135 138 140 142 142 141 141 140 140 139 138 136 134 133 133 129 125 122 123 128 132 132 132 131 129 128 128 126 123 117 112 113 115 116 116 112 102 94 84 72 58 38 22 23 25 24 24 24 21 20 21 21 20 20 22 24
148 146 149 149 142 132 123 117 116 117 117 118 118 117 119 120 121 121 122 122 121 120 119 119 120 124 128 131 134 138 139 140 141 142 141 141 140 140 139 139 138 136 135 133 127 122 120 123 131 135 133 131 129 127 128 130 130 128 124 123 124 125 125 121 113 103 97 92 86 74 49 28 33 34 26 24 23 21 19 19 19 18 16 17 20
156 155 154 155 150 142 134 123 119 120 121 121 122 121 120 121 124 125 126 125 123 121 120 120 120 122 126 129 133 136 138 138 139 140 141 141 141 141 141 141 140 138 136 133 129 126 126 129 135 135 132 129 127 128 131 132 133 132 131 132 133 133 131 123 114 109 106 106 105 98 77 45 37 34 26 20 19 18 15 16 18 19 17 14 15
165 168 161 159 157 152 146 134 123 121 124 125 127 126 125 125 127 127 127 126 124 122 121 120 120 121 123 125 129 132 134 136 137 139 140 141 142 143 143 142 140 139 138 136 133 134 135 135 136 132 127 126 128 131 133 133 134 134 133 133 133 133 129 122 117 115 116 116 117 117 109 72 37 23 18 14 14 14 11 13 17 21 20 16 15
176 182 172 163 161 159 156 145 132 127 127 128 131 132 131 131 130 130 129 129 128 126 125 124 123 123 124 125 127 130 132 134 136 138 140 142 144 145 144 142 141 141 140 139 138 140 138 137 136 130 126 127 130 133 134 134 135 135 133 131 131 132 129 128 129 130 130 131 136 142 145 149 2 358 10 10 7 7 7 10 15 19 21 21 21
190 190 180 169 164 164 164 157 144 136 133 132 133 136 137 136 136 136 136 135 134 132 130 129 128 128 128 129 130 131 133 135 138 140 142 145 146 146 145 143 143 143 143 143 144 144 140 137 134 130 130 131 134 135 134 135 137 137 135 134 135 136 137 141 143 144 144 148 160 170 175 210 306 356 7 1 356 359 3 7 13 16 19 23 24
197 194 185 175 169 167 167 166 157 146 141 137 136 138 140 141 142 142 142 141 139 138 136 135 134 134 134 135 135 136 138 139 141 143 146 148 148 147 147 146 148 148 148 147 147 147 144 139 134 134 136 138 138 138 136 137 140 140 140 140 140 142 145 150 153 156 160 167 181 194 199 228 285 352 342 336 346 355 1 6 10 13 16 19 20
198 198 192 180 172 173 172 172 168 158 150 145 141 139 141 143 145 147 146 145 143 142 141 140 139 139 139 140 141 141 143 145 146 147 149 151 152 151 151 152 154 153 150 149 149 150 147 140 135 138 142 143 143 141 139 140 142 143 144 145 146 150 154 158 163 167 174 185 199 207 209 218 234 267 306 332 351 357 2 5 7 10 12 13 13
197 198 199 189 178 177 178 176 174 169 162 154 148 145 145 145 147 151 150 147 146 145 145 144 143 143 143 144 145 145 147 149 150 152 154 155 156 156 157 157 157 154 152 153 155 154 151 144 141 142 145 147 147 144 142 143 144 145 148 153 157 160 163 167 175 180 188 202 212 218 232 255 278 308 334 349 357 0 4 5 6 9 7 6 8
197 197 200 196 186 183 184 180 177 177 173 165 157 154 154 152 152 154 155 152 151 150 150 151 150 148 146 146 147 149 151 153 155 157 159 159 159 159 160 161 161 160 160 161 160 160 158 153 149 146 146 146 146 145 144 143 145 148 154 167 172 170 172 180 193 200 204 212 217 222 238 267 291 316 339 349 352 354 1 3 5 7 5 4 5
199 199 199 198 191 189 191 186 181 181 180 176 169 165 164 162 160 160 160 159 158 157 157 158 156 153 150 150 152 155 157 158 160 162 161 160 160 162 164 166 167 168 169 167 164 162 162 160 155 149 143 141 140 144 149 148 148 154 164 178 186 183 188 198 207 217 222 224 229 236 254 282 304 322 338 346 346 348 355 360 2 5 5 4 2
203 202 198 196 195 196 197 193 188 185 184 183 179 177 176 173 171 170 169 169 167 165 164 163 163 160 157 156 158 162 164 164 166 165 164 163 164 168 171 173 173 173 171 168 164 159 159 161 155 146 140 137 140 148 158 163 166 172 181 193 203 204 207 215 219 228 237 244 261 285 301 312 321 332 343 348 348 348 353 357 360 3 3 2 1
209 205 199 194 194 201 204 199 194 191 189 187 185 184 186 184 181 179 179 179 178 175 173 171 171 170 169 168 168 169 171 172 172 171 170 169 171 174 175 176 176 173 172 171 167 159 157 160 155 145 142 150 161 169 176 188 196 203 214 228 240 249 259 269 279 290 294 294 301 313 323 326 332 339 348 352 352 351 352 355 357 357 356 358 0
215 210 203 197 194 200 207 205 200 198 194 190 190 189 189 190 190 188 188 188 186 185 184 183 180 178 176 177 179 178 178 178 177 176 176 174 175 178 179 179 176 173 175 178 174 165 162 165 162 154 154 163 175 189 197 208 218 226 236 251 262 271 283 295 307 317 322 324 324 328 331 333 337 343 348 354 355 352 350 351 351 349 350 355 356
Height
5892 5892 5894 5894 5895 5895 5896 5897 5899 5899 5900 5900 5900 5901 5902 5904 5905 5905 5905 5903 5905 5911 5908 5905 5907 5908 5909 5909 5910 5911 5912 5912 5913 5913 5913 5914 5914 5915 5916 5916 5917 5917 5917 5917 5917 5917 5917 5917 5916 5916 5917 5917 5917 5917 5917 5918 5918 5917 5917 5917 5918 5919 5920 5921 5922 5922 5922 5923 5923 5923 5923 5923 5922 5921 5921 5920 5920 5920 5919 5919 5919 5919 5919 5918 5918
5893 5893 5894 5895 5896 5896 5897 5899 5899 5900 5900 5901 5901 5902 5903 5904 5905 5905 5905 5903 5908 5912 5908 5906 5908 5908 5909 5910 5911 5912 5912 5912 5913 5913 5914 5914 5915 5915 5916 5916 5917 5917 5918 5918 5917 5917 5918 5917 5917 5918 5918 5919 5918 5918 5918 5920 5920 5919 5919 5918 5919 5920 5920 5921 5922 5923 5923 5923 5923 5924 5924 5923 5923 5922 5922 5921 5921 5921 5920 5920 5920 5920 5920 5919 5919
5895 5894 5895 5896 5897 5897 5898 5899 5900 5900 5900 5901 5902 5903 5904 5904 5905 5905 5904 5903 5909 5913 5908 5907 5908 5909 5910 5910 5911 5912 5912 5912 5913 5913 5914 5915 5915 5916 5916 5916 5917 5917 5918 5918 5918 5918 5918 5917 5918 5918 5919 5919 5919 5919 5920 5921 5922 5922 5923 5921 5920 5921 5921 5922 5923 5924 5924 5924 5924 5924 5924 5924 5923 5923 5922 5922 5922 5921 5921 5921 5921 5921 5921 5920 5920
5896 5896 5896 5897 5898 5899 5899 5899 5899 5900 5901 5902 5903 5904 5904 5905 5905 5905 5904 5904 5910 5914 5909 5907 5908 5909 5910 5911 5912 5912 5912 5913 5913 5914 5914 5915 5915 5916 5916 5917 5917 5918 5918 5918 5918 5918 5918 5918 5918 5918 5919 5919 5919 5920 5922 5922 5921 5922 5924 5925 5922 5921 5922 5922 5923 5924 5925 5925 5925 5925 5924 5924 5924 5923 5923 5923 5923 5923 5922 5922 5922 5922 5922 5922 5922
5897 5897 5898 5898 5899 5900 5900 5899 5900 5901 5901 5903 5904 5904 5904 5905 5906 5906 5905 5907 5911 5913 5909 5907 5908 5909 5910 5911 5912 5912 5913 5913 5913 5914 5915 5915 5915 5916 5916 5917 5918 5918 5918 5918 5919 5919 5919 5919 5919 5920 5920 5919 5919 5920 5921 5921 5922 5922 5924 5926 5925 5923 5923 5923 5924 5924 5925 5925 5925 5925 5925 5924 5924 5924 5923 5923 5924 5924 5924 5924 5924 5923 5923 5923 5923
5897 5898 5899 5899 5899 5900 5900 5900 5901 5902 5903 5903 5904 5905 5905 5905 5906 5907 5908 5911 5912 5911 5910 5909 5909 5910 5910 5911 5912 5912 5913 5913 5914 5914 5915 5915 5915 5916 5917 5917 5918 5918 5918 5919 5919 5919 5920 5920 5921 5922 5921 5919 5919 5920 5921 5922 5923 5924 5924 5925 5926 5924 5924 5924 5924 5925 5925 5925 5925 5925 5925 5924 5924 5924 5924 5925 5925 5925 5925 5925 5925 5925 5925 5925 5925
5898 5899 5899 5900 5900 5901 5901 5901 5902 5903 5904 5904 5905 5904 5904 5906 5907 5909 5912 5913 5911 5910 5910 5909 5909 5910 5910 5911 5912 5912 5913 5913 5914 5914 5914 5915 5915 5916 5917 5918 5918 5919 5919 5919 5919 5920 5920 5920 5921 5921 5922 5921 5919 5920 5922 5923 5924 5925 5925 5926 5927 5925 5924 5924 5925 5925 5925 5926 5926 5925 5925 5925 5924 5925 5925 5926 5926 5926 5926 5926 5926 5926 5926 5926 5926
5898 5899 5900 5900 5901 5901 5902 5902 5903 5904 5904 5905 5906 5905 5905 5907 5910 5913 5913 5912 5910 5910 5910 5910 5910 5910 5911 5912 5912 5913 5913 5913 5914 5914 5914 5914 5915 5917 5918 5918 5919 5919 5919 5920 5920 5921 5921 5921 5921 5920 5923 5922 5920 5921 5922 5923 5924 5925 5926 5927 5927 5926 5925 5925 5925 5925 5926 5926 5926 5926 5925 5925 5925 5926 5927 5927 5927 5927 5927 5927 5927 5927 5927 5927 5927
5899 5899 5900 5900 5901 5901 5902 5903 5905 5906 5907 5908 5909 5909 5909 5911 5912 5913 5912 5910 5909 5909 5910 5911 5911 5911 5912 5912 5913 5913 5913 5914 5914 5914 5914 5915 5916 5917 5918 5919 5919 5920 5920 5921 5921 5922 5921 5921 5921 5922 5924 5923 5921 5922 5923 5923 5924 5925 5926 5926 5927 5926 5926 5926 5925 5926 5926 5926 5926 5926 5926 5926 5926 5927 5927 5927 5928 5928 5928 5928 5928 5928 5928 5928 5928
5900 5900 5901 5901 5901 5901 5902 5902 5904 5906 5908 5910 5910 5909 5910 5911 5911 5911 5909 5909 5909 5910 5911 5911 5911 5912 5912 5912 5913 5914 5914 5914 5914 5915 5915 5915 5916 5917 5918 5919 5920 5920 5921 5921 5922 5922 5922 5922 5922 5923 5925 5923 5922 5923 5924 5924 5924 5925 5926 5927 5927 5927 5927 5926 5926 5926 5926 5927 5927 5927 5927 5927 5927 5928 5928 5928 5929 5929 5929 5929 5929 5929 5929 5929 5929
5901 5901 5902 5902 5902 5902 5902 5902 5903 5905 5907 5907 5907 5907 5908 5909 5909 5909 5908 5909 5910 5911 5911 5911 5911 5912 5912 5913 5913 5914 5914 5914 5914 5915 5916 5916 5916 5917 5919 5920 5920 5921 5921 5922 5923 5923 5923 5923 5923 5924 5925 5924 5924 5925 5925 5925 5925 5926 5927 5928 5928 5928 5928 5927 5927 5927 5927 5928 5928 5928 5928 5928 5929 5929 5929 5929 5929 5930 5930 5930 5930 5930 5930 5930 5930
5902 5903 5903 5903 5903 5903 5903 5903 5904 5905 5906 5905 5906 5907 5907 5907 5908 5908 5909 5910 5911 5911 5911 5911 5911 5912 5912 5913 5913 5914 5914 5914 5914 5916 5917 5917 5917 5917 5919 5920 5921 5921 5922 5923 5923 5924 5923 5923 5924 5925 5925 5925 5926 5927 5927 5927 5927 5928 5928 5929 5929 5929 5929 5928 5928 5928 5928 5928 5928 5929 5929 5929 5929 5930 5930 5930 5930 5930 5931 5931 5931 5931 5931 5931 5931
5903 5904 5904 5904 5904 5904 5904 5904 5905 5906 5906 5905 5906 5907 5907 5907 5908 5909 5909 5910 5911 5911 5911 5911 5911 5911 5912 5912 5913 5913 5913 5914 5914 5915 5917 5917 5917 5918 5919 5920 5921 5922 5923 5923 5924 5924 5924 5924 5925 5926 5926 5926 5927 5928 5929 5929 5929 5929 5930 5930 5930 5930 5930 5929 5929 5929 5929 5929 5929 5929 5930 5930 5930 5930 5930 5931 5931 5931 5931 5931 5932 5932 5932 5932 5932
5904 5904 5904 5904 5904 5904 5904 5905 5907 5908 5906 5905 5907 5908 5908 5908 5908 5909 5910 5910 5910 5910 5910 5910 5911 5911 5911 5911 5912 5912 5913 5914 5914 5915 5916 5917 5918 5918 5919 5920 5921 5923 5924 5924 5925 5925 5925 5925 5926 5926 5927 5928 5928 5929 5930 5930 5931 5931 5931 5931 5931 5931 5931 5930 5930 5930 5930 5930 5930 5930 5931 5931 5931 5931 5931 5931 5932 5932 5932 5932 5933 5933 5933 5933 5933
5905 5905 5905 5904 5904 5904 5905 5907 5909 5908 5906 5906 5908 5909 5908 5909 5909 5909 5910 5910 5909 5909 5909 5910 5910 5911 5911 5912 5912 5913 5913 5914 5915 5915 5916 5917 5918 5918 5919 5920 5921 5923 5924 5924 5925 5925 5926 5926 5926 5927 5928 5928 5929 5930 5930 5931 5931 5931 5932 5932 5932 5932 5932 5931 5931 5931 5931 5931 5931 5931 5932 5932 5932 5932 5932 5932 5933 5933 5933 5934 5934 5934 5934 5934 5934
5905 5905 5904 5904 5904 5904 5905 5908 5909 5908 5906 5906 5908 5909 5909 5909 5910 5910 5910 5910 5909 5908 5909 5909 5911 5911 5912 5912 5913 5914 5914 5914 5915 5916 5916 5917 5918 5919 5919 5920 5921 5923 5923 5924 5925 5925 5926 5926 5927 5928 5929 5929 5930 5930 5931 5931 5931 5932 5932 5932 5933 5933 5933 5932 5932 5932 5932 5932 5932 5933 5933 5933 5933 5933 5933 5933 5934 5934 5935 5935 5935 5935 5935 5935 5935
5905 5905 5905 5904 5904 5904 5907 5910 5909 5907 5906 5906 5908 5910 5910 5910 5910 5910 5910 5910 5908 5908 5908 5910 5912 5912 5911 5912 5913 5913 5914 5914 5915 5916 5916 5918 5919 5919 5920 5921 5922 5923 5923 5924 5925 5926 5927 5927 5928 5929 5929 5930 5930 5931 5931 5932 5932 5932 5933 5933 5933 5933 5933 5933 5933 5933 5933 5933 5934 5934 5934 5934 5934 5934 5934 5935 5935 5935 5936 5936 5936 5936 5936 5936 5936
5905 5905 5905 5904 5904 5905 5908 5911 5909 5907 5906 5906 5908 5910 5910 5910 5910 5910 5910 5910 5908 5907 5908 5910 5911 5911 5911 5911 5912 5913 5913 5914 5915 5916 5917 5918 5919 5919 5920 5921 5923 5923 5924 5924 5925 5927 5928 5928 5929 5929 5930 5931 5931 5931 5932 5932 5933 5933 5933 5934 5934 5934 5934 5934 5934 5934 5934 5934 5935 5935 5935 5935 5935 5935 5935 5936 5936 5937 5937 5937 5937 5937 5937 5937 5936
5905 5905 5905 5904 5904 5905 5909 5912 5910 5907 5906 5908 5909 5910 5909 5909 5910 5910 5910 5909 5908 5907 5907 5909 5910 5911 5911 5911 5912 5913 5913 5914 5915 5916 5917 5918 5918 5919 5920 5922 5923 5924 5924 5925 5926 5927 5928 5929 5930 5930 5931 5932 5932 5932 5933 5933 5933 5934 5934 5935 5935 5935 5935 5935 5935 5935 5935 5935 5936 5936 5936 5936 5936 5936 5936 5937 5937 5938 5938 5938 5938 5938 5937 5937 5937
5906 5905 5905 5904 5904 5906 5910 5911 5910 5908 5908 5909 5910 5909 5909 5909 5909 5909 5909 5908 5908 5907 5908 5909 5910 5910 5911 5911 5912 5912 5913 5914 5915 5916 5916 5917 5917 5919 5921 5922 5923 5924 5925 5926 5927 5928 5929 5929 5930 5931 5932 5933 5933 5933 5934 5934 5934 5935 5935 5935 5936 5936 5935 5935 5936 5936 5936 5936 5937 5937 5937 5937 5937 5937 5937 5938 5938 5939 5939 5939 5939 5938 5938 5938 5938
5906 5906 5905 5904 5904 5906 5910 5911 5910 5909 5910 5910 5910 5909 5909 5909 5909 5909 5908 5907 5907 5908 5908 5908 5909 5910 5910 5911 5911 5912 5913 5913 5915 5915 5916 5916 5917 5919 5921 5922 5924 5925 5926 5926 5927 5929 5929 5930 5931 5932 5933 5933 5934 5935 5935 5935 5935 5935 5936 5936 5937 5936 5936 5936 5936 5936 5937 5937 5938 5938 5938 5938 5938 5938 5939 5939 5940 5940 5940 5940 5939 5939 5939 5939 5939
5907 5906 5905 5905 5905 5907 5910 5911 5910 5910 5911 5910 5910 5910 5909 5909 5909 5908 5907 5906 5907 5908 5908 5908 5909 5909 5910 5910 5911 5912 5912 5913 5914 5915 5916 5916 5917 5919 5921 5923 5924 5925 5926 5927 5928 5929 5930 5931 5932 5932 5933 5934 5935 5936 5936 5936 5936 5936 5937 5937 5937 5937 5937 5937 5937 5937 5938 5938 5939 5939 5939 5939 5939 5940 5940 5940 5941 5941 5941 5940 5940 5940 5940 5939 5939
5907 5906 5906 5905 5905 5907 5909 5910 5910 5910 5911 5910 5910 5910 5909 5909 5909 5908 5907 5906 5907 5908 5908 5907 5908 5908 5909 5909 5910 5911 5912 5913 5914 5915 5916 5917 5918 5919 5921 5923 5924 5926 5927 5928 5929 5930 5931 5932 5932 5933 5934 5935 5936 5937 5937 5937 5937 5937 5937 5938 5938 5938 5938 5938 5938 5938 5939 5940 5940 5940 5940 5940 5941 5941 5941 5942 5942 5941 5941 5941 5941 5941 5940 5940 5939
5908 5907 5907 5906 5906 5907 5909 5910 5910 5909 5910 5911 5910 5910 5909 5909 5909 5908 5907 5906 5907 5908 5908 5908 5908 5908 5908 5909 5910 5910 5911 5913 5914 5915 5916 5917 5918 5919 5921 5924 5925 5926 5928 5929 5930 5931 5932 5933 5934 5934 5935 5936 5937 5938 5938 5938 5937 5937 5938 5938 5939 5939 5939 5939 5939 5939 5940 5941 5941 5941 5941 5942 5942 5942 5942 5942 5942 5942 5942 5942 5941 5941 5941 5940 5940
5909 5908 5907 5907 5907 5908 5909 5910 5910 5909 5910 5911 5911 5910 5909 5909 5909 5909 5908 5907 5907 5907 5908 5908 5908 5908 5909 5909 5910 5911 5912 5913 5914 5915 5916 5917 5918 5920 5922 5924 5925 5927 5928 5930 5931 5932 5933 5934 5934 5935 5936 5937 5938 5938 5938 5938 5938 5938 5938 5939 5939 5939 5940 5940 5940 5941 5941 5942 5942 5942 5943 5943 5943 5943 5943 5943 5943 5943 5943 5942 5942 5942 5941 5940 5940
5910 5909 5908 5908 5908 5908 5910 5910 5910 5909 5910 5911 5911 5910 5910 5909 5909 5909 5909 5908 5908 5908 5908 5909 5909 5909 5910 5910 5911 5912 5913 5913 5914 5915 5917 5918 5919 5921 5923 5925 5926 5928 5929 5930 5931 5933 5934 5934 5935 5936 5937 5937 5938 5939 5939 5939 5938 5939 5939 5939 5940 5940 5940 5941 5941 5942 5942 5943 5943 5944 5944 5944 5944 5944 5944 5944 5943 5943 5943 5943 5942 5942 5941 5941 5940
5910 5910 5909 5909 5909 5909 5910 5911 5910 5909 5909 5910 5911 5910 5910 5910 5910 5910 5909 5909 5909 5909 5909 5910 5910 5911 5911 5912 5912 5913 5913 5914 5915 5916 5917 5918 5920 5922 5924 5926 5927 5929 5930 5931 5932 5933 5934 5935 5936 5937 5937 5938 5938 5939 5939 5939 5939 5939 5939 5940 5940 5941 5941 5942 5942 5943 5943 5944 5944 5945 5945 5945 5945 5944 5944 5944 5944 5944 5944 5943 5943 5942 5942 5941 5941
5911 5910 5910 5909 5909 5910 5911 5911 5911 5910 5909 5910 5911 5910 5910 5910 5911 5910 5910 5910 5910 5910 5910 5911 5911 5912 5912 5913 5913 5914 5914 5915 5915 5916 5918 5919 5921 5923 5926 5927 5928 5929 5931 5932 5933 5934 5935 5936 5937 5938 5938 5938 5939 5939 5939 5939 5939 5940 5940 5941 5941 5942 5942 5942 5943 5944 5944 5945 5945 5945 5946 5945 5945 5945 5945 5945 5945 5944 5944 5944 5943 5943 5942 5942 5941
5911 5911 5911 5910 5910 5910 5911 5912 5912 5911 5910 5910 5911 5911 5911 5911 5911 5911 5911 5911 5911 5911 5911 5912 5912 5913 5913 5914 5914 5915 5915 5916 5917 5917 5919 5920 5922 5924 5926 5928 5929 5930 5932 5933 5934 5935 5936 5937 5937 5938 5939 5939 5939 5939 5939 5939 5940 5940 5941 5942 5942 5943 5943 5944 5944 5945 5945 5946 5946 5946 5946 5946 5946 5946 5945 5945 5945 5945 5944 5944 5944 5943 5943 5942 5941
5912 5912 5911 5911 5911 5911 5911 5912 5912 5911 5910 5910 5911 5912 5912 5912 5912 5912 5912 5912 5912 5912 5913 5913 5913 5914 5914 5915 5915 5916 5917 5917 5918 5919 5920 5922 5924 5926 5927 5929 5930 5931 5933 5934 5935 5936 5937 5938 5938 5939 5939 5939 5939 5939 5939 5940 5940 5941 5942 5942 5943 5943 5944 5945 5945 5946 5946 5946 5947 5947 5947 5947 5947 5946 5946 5946 5945 5945 5945 5945 5944 5944 5943 5942 5941
5912 5912 5912 5911 5911 5911 5911 5912 5912 5912 5912 5911 5911 5912 5913 5913 5913 5913 5913 5913 5913 5914 5914 5914 5914 5915 5915 5916 5916 5917 5918 5919 5920 5921 5922 5924 5925 5927 5928 5929 5931 5932 5933 5935 5936 5937 5938 5938 5939 5939 5940 5940 5939 5939 5940 5940 5941 5942 5943 5943 5944 5944 5945 5945 5946 5947 5947 5947 5948 5948 5948 5948 5947 5947 5947 5946 5946 5946 5945 5945 5945 5944 5943 5942 5942
5913 5913 5912 5912 5911 5912 5912 5912 5913 5913 5913 5912 5912 5912 5913 5914 5914 5914 5914 5914 5915 5915 5915 5915 5916 5916 5916 5917 5917 5918 5919 5921 5922 5923 5924 5925 5927 5928 5929 5930 5932 5933 5934 5936 5936 5937 5939 5939 5940 5940 5940 5940 5940 5940 5940 5941 5942 5943 5943 5944 5944 5945 5945 5946 5947 5947 5948 5948 5948 5948 5948 5948 5948 5948 5947 5947 5947 5946 5946 5946 5945 5944 5944 5943 5942
5913 5913 5913 5912 5912 5912 5912 5913 5913 5914 5914 5914 5913 5913 5914 5915 5915 5915 5915 5916 5916 5916 5916 5917 5917 5917 5918 5918 5919 5920 5921 5922 5923 5925 5926 5927 5928 5929 5930 5931 5933 5934 5935 5936 5937 5938 5940 5940 5941 5941 5941 5940 5940 5941 5941 5942 5943 5944 5944 5944 5945 5945 5946 5947 5948 5948 5949 5949 5949 5949 5949 5949 5949 5948 5948 5948 5947 5947 5947 5946 5946 5945 5944 5943 5942
5914 5914 5914 5913 5913 5913 5913 5913 5914 5915 5915 5915 5914 5914 5914 5915 5916 5916 5916 5917 5917 5917 5918 5918 5918 5919 5919 5920 5920 5921 5922 5923 5924 5926 5927 5928 5929 5931 5932 5933 5934 5935 5937 5937 5938 5939 5941 5941 5941 5941 5941 5941 5941 5941 5942 5943 5944 5944 5945 5945 5945 5946 5946 5947 5948 5949 5949 5949 5950 5950 5950 5949 5949 5949 5949 5948 5948 5948 5947 5946 5946 5945 5944 5944 5943
5915 5914 5914 5914 5914 5914 5914 5914 5915 5915 5916 5916 5916 5916 5916 5916 5916 5917 5917 5918 5918 5919 5919 5919 5920 5920 5920 5921 5922 5922 5923 5924 5925 5927 5928 5929 5931 5932 5933 5934 5936 5937 5938 5939 5939 5940 5941 5942 5942 5942 5941 5941 5941 5942 5943 5944 5945 5945 5945 5945 5946 5946 5947 5948 5949 5949 5950 5950 5950 5950 5950 5950 5950 5950 5949 5949 5948 5948 5947 5946 5946 5945 5945 5944 5943
5915 5915 5915 5915 5915 5915 5915 5915 5915 5916 5916 5917 5917 5917 5917 5917 5917 5917 5918 5918 5919 5920 5920 5921 5921 5921 5922 5922 5923 5924 5925 5926 5927 5928 5929 5931 5932 5933 5935 5936 5937 5938 5939 5940 5941 5941 5941 5942 5942 5942 5942 5942 5942 5943 5944 5945 5945 5946 5946 5946 5946 5947 5947 5948 5949 5949 5950 5950 5950 5951 5951 5950 5950 5950 5950 5949 5949 5948 5947 5947 5946 5945 5945 5944 5943
5916 5916 5916 5916 5916 5916 5916 5916 5916 5916 5917 5917 5918 5918 5918 5918 5919 5919 5919 5919 5920 5920 5921 5921 5922 5922 5923 5924 5925 5926 5926 5927 5928 5929 5931 5932 5933 5934 5936 5937 5938 5939 5940 5941 5942 5942 5942 5942 5942 5943 5943 5943 5943 5944 5944 5945 5946 5946 5946 5946 5947 5947 5948 5949 5949 5950 5950 5950 5951 5951 5951 5951 5950 5950 5950 5950 5949 5948 5948 5947 5946 5946 5945 5944 5944
5917 5916 5916 5916 5916 5917 5917 5917 5917 5917 5917 5918 5919 5919 5919 5920 5920 5920 5921 5921 5921 5922 5922 5923 5923 5924 5924 5925 5926 5927 5928 5929 5930 5931 5932 5933 5934 5935 5936 5938 5939 5940 5941 5942 5942 5942 5942 5943 5943 5944 5943 5944 5944 5944 5945 5945 5946 5946 5947 5947 5948 5948 5948 5949 5949 5950 5950 5951 5951 5951 5951 5951 5951 5950 5950 5950 5949 5949 5948 5947 5946 5946 5945 5945 5944
5917 5917 5917 5917 5917 5917 5918 5918 5918 5918 5918 5918 5919 5920 5920 5921 5921 5922 5922 5923 5923 5923 5924 5924 5925 5925 5926 5926 5928 5929 5930 5931 5932 5932 5933 5934 5935 5936 5937 5939 5940 5941 5941 5942 5943 5943 5943 5944 5944 5944 5944 5944 5944 5944 5945 5945 5946 5946 5947 5947 5948 5948 5949 5949 5949 5950 5950 5951 5951 5951 5951 5951 5951 5950 5950 5950 5949 5949 5948 5947 5947 5946 5945 5945 5944
5918 5918 5918 5918 5918 5918 5919 5919 5919 5919 5919 5919 5920 5920 5921 5922 5922 5923 5924 5924 5925 5925 5925 5925 5926 5927 5927 5928 5929 5930 5931 5932 5933 5934 5935 5935 5936 5937 5938 5939 5940 5941 5942 5943 5943 5943 5944 5944 5945 5945 5945 5944 5945 5945 5945 5946 5946 5947 5947 5947 5948 5948 5949 5949 5949 5950 5950 5951 5951 5951 5952 5951 5951 5951 5950 5950 5950 5949 5948 5948 5947 5946 5946 5945 5944
5919 5919 5918 5918 5919 5919 5919 5920 5920 5920 5920 5920 5920 5921 5922 5923 5924 5924 5925 5926 5926 5926 5927 5927 5927 5928 5929 5930 5930 5931 5932 5933 5934 5935 5936 5937 5938 5938 5939 5940 5941 5942 5942 5943 5943 5943 5944 5945 5946 5946 5945 5945 5945 5945 5946 5946 5947 5947 5947 5948 5948 5949 5949 5949 5950 5950 5951 5951 5951 5952 5952 5952 5952 5951 5951 5950 5950 5949 5949 5948 5947 5946 5946 5945 5944
5920 5920 5919 5919 5919 5920 5920 5920 5920 5921 5921 5921 5921 5922 5922 5923 5924 5925 5926 5927 5927 5927 5928 5928 5929 5930 5930 5931 5932 5933 5934 5934 5935 5936 5937 5938 5939 5940 5940 5941 5942 5942 5943 5943 5944 5944 5945 5945 5946 5946 5946 5946 5946 5946 5946 5947 5947 5948 5948 5948 5949 5949 5949 5950 5950 5950 5951 5951 5952 5952 5952 5952 5952 5951 5951 5951 5950 5949 5949 5948 5947 5946 5946 5945 5945
5920 5920 5920 5920 5920 5920 5921 5921 5921 5921 5922 5922 5922 5923 5923 5924 5925 5926 5927 5928 5928 5928 5929 5929 5930 5931 5932 5933 5933 5934 5935 5936 5937 5938 5938 5939 5940 5941 5941 5942 5943 5943 5943 5944 5944 5945 5945 5946 5946 5946 5946 5946 5946 5946 5947 5947 5948 5948 5948 5948 5949 5949 5949 5950 5950 5950 5951 5951 5952 5952 5952 5952 5952 5952 5951 5951 5950 5949 5949 5948 5947 5947 5946 5945 5945
5920 5920 5920 5920 5920 5921 5921 5922 5922 5922 5923 5923 5923 5924 5924 5925 5926 5926 5927 5928 5929 5929 5930 5930 5931 5932 5932 5934 5935 5935 5936 5937 5938 5939 5939 5940 5941 5942 5942 5943 5944 5944 5944 5944 5945 5946 5946 5946 5946 5946 5946 5946 5947 5947 5947 5948 5948 5948 5948 5948 5949 5949 5950 5950 5950 5951 5951 5951 5952 5952 5952 5952 5951 5951 5951 5951 5950 5950 5949 5948 5948 5947 5946 5945 5945
5920 5920 5921 5921 5921 5921 5922 5922 5923 5923 5923 5924 5924 5925 5925 5926 5927 5928 5928 5929 5929 5930 5931 5932 5932 5933 5933 5934 5935 5936 5937 5938 5939 5940 5940 5941 5942 5943 5943 5944 5944 5945 5945 5945 5946 5946 5947 5947 5946 5946 5947 5947 5947 5948 5948 5948 5949 5949 5949 5949 5949 5949 5950 5950 5951 5951 5951 5951 5951 5951 5952 5952 5951 5951 5951 5951 5950 5950 5949 5949 5948 5947 5946 5945 5945
5920 5920 5921 5921 5921 5921 5922 5922 5923 5924 5924 5924 5925 5925 5926 5927 5928 5929 5929 5930 5930 5931 5932 5933 5933 5934 5934 5935 5936 5937 5938 5939 5939 5940 5941 5942 5942 5943 5944 5945 5945 5945 5945 5946 5946 5947 5947 5947 5947 5947 5947 5948 5948 5948 5949 5949 5949 5950 5950 5950 5950 5950 5950 5951 5951 5951 5951 5951 5951 5951 5951 5952 5951 5951 5951 5951 5950 5950 5949 5949 5948 5947 5946 5946 5945
5919 5920 5920 5921 5921 5921 5922 5922 5923 5924 5924 5925 5925 5926 5927 5927 5928 5929 5930 5930 5931 5932 5932 5933 5934 5935 5935 5936 5937 5938 5938 5939 5940 5941 5942 5942 5943 5944 5944 5945 5945 5946 5946 5946 5947 5947 5947 5947 5947 5948 5948 5949 5949 5949 5950 5950 5950 5950 5950 5951 5951 5951 5951 5951 5951 5952 5952 5952 5952 5952 5952 5952 5952 5951 5951 5951 5950 5950 5949 5949 5948 5947 5946 5946 5945
5919 5919 5920 5920 5921 5921 5922 5922 5923 5924 5924 5925 5926 5926 5927 5928 5929 5930 5930 5931 5931 5932 5933 5934 5934 5935 5936 5936 5937 5938 5939 5940 5941 5941 5942 5942 5943 5944 5944 5945 5945 5946 5946 5947 5947 5947 5947 5948 5948 5948 5949 5949 5950 5950 5950 5950 5950 5950 5951 5951 5951 5951 5951 5951 5952 5952 5952 5952 5952 5952 5952 5952 5951 5951 5951 5951 5950 5950 5949 5948 5948 5947 5946 5946 5945
5918 5918 5919 5920 5921 5921 5922 5922 5922 5923 5924 5925 5926 5926 5927 5928 5929 5930 5931 5931 5932 5932 5933 5934 5935 5935 5936 5937 5937 5938 5939 5940 5941 5942 5942 5943 5943 5944 5944 5945 5945 5946 5946 5947 5947 5947 5947 5948 5948 5948 5949 5949 5950 5950 5951 5951 5951 5951 5951 5951 5951 5951 5951 5952 5952 5952 5953 5953 5952 5952 5952 5952 5951 5951 5951 5950 5950 5949 5949 5948 5948 5947 5946 5945 5945
5917 5918 5919 5919 5920 5921 5922 5922 5922 5923 5924 5924 5925 5926 5927 5928 5929 5930 5931 5932 5932 5933 5933 5934 5935 5935 5936 5937 5938 5938 5939 5940 5941 5942 5942 5943 5943 5944 5944 5945 5945 5946 5946 5946 5947 5947 5947 5948 5948 5948 5949 5949 5950 5950 5950 5951 5951 5951 5951 5951 5951 5951 5952 5952 5952 5953 5953 5953 5953 5952 5952 5952 5951 5951 5950 5950 5949 5949 5948 5948 5947 5946 5945 5945 5945
5916 5918 5919 5919 5919 5920 5921 5922 5923 5923 5924 5924 5925 5926 5927 5928 5929 5930 5931 5932 5933 5933 5934 5934 5935 5935 5936 5937 5938 5938 5939 5940 5941 5942 5942 5943 5943 5944 5944 5945 5945 5945 5946 5946 5946 5947 5947 5947 5948 5948 5949 5949 5950 5950 5950 5951 5951 5951 5951 5951 5951 5951 5952 5952 5953 5953 5953 5953 5953 5952 5952 5952 5951 5950 5950 5949 5949 5948 5948 5947 5947 5946 5945 5945 5944